This demonstration page uses our WeatherBlox Daily Observations layout. Learn more.

Left ArrowRight Arrow

39.92423, -83.80882

Hourly Observations for March 17, 2021

Temp ( °F °C ) Dew Point ( °F °C ) Humidity (%) Winds ( mph kmh ) Pressure ( in mb ) Visibility ( mi km ) Precip ( " mm )
12:14 am 00:14 Cloudy with Mist and Fog 41 5 41 5 100 100 N 9 15 30.05 1018 4 6 N/A
12:56 am 00:56 Cloudy with Mist and Fog 41 5 41 5 100 100 N 6 9 30.04 1017 4 6 N/A
1:56 am 01:56 Cloudy with Mist and Fog 41 5 41 5 100 100 N 7 11 30.05 1018 5 8 N/A
2:21 am 02:21 Partly Cloudy with Mist and Fog 39 4 39 4 100 100 N 3 6 30.07 1018 3 5 N/A
2:38 am 02:38 Clear with Mist and Fog 39 4 39 4 100 100 N N/A 30.07 1018 2 3 N/A
2:40 am 02:40 Mostly Clear with Mist and Fog 39 4 39 4 100 100 N N/A 30.08 1018 2 2 N/A
2:51 am 02:51 Mostly Cloudy with Mist and Fog 37 3 37 3 100 100 N 7 11 30.08 1019 2 3 N/A
2:56 am 02:56 Mostly Cloudy with Mist and Fog 39 3.9 39 3.9 100 100 N 8 13 30.06 1018 4 6 N/A
3:15 am 03:15 Cloudy with Mist and Fog 39 4 39 4 100 100 NE 5 7 30.08 1018 3 5 N/A
3:26 am 03:26 Cloudy with Mist and Fog 39 4 39 4 100 100 NE 8 13 30.08 1018 2 3 N/A
3:56 am 03:56 Cloudy with Mist and Fog 40 4.4 40 4.4 100 100 ENE 5 7 30.07 1018 2 3 N/A
4:56 am 04:56 Cloudy with Mist and Fog 41 5 41 5 100 100 E 6 9 30.06 1018 3 4 N/A
5:36 am 05:36 Cloudy with Mist and Fog 41 5 41 5 100 100 E 6 9 30.08 1019 3 4 N/A
5:56 am 05:56 Cloudy with Mist and Fog 41 5 41 5 100 100 E 6 9 30.08 1019 3 4 N/A
6:56 am 06:56 Cloudy with Mist and Fog 41 5 41 5 100 100 ESE 6 9 30.08 1019 2 3 N/A
7:12 am 07:12 Cloudy with Mist and Fog 41 5 41 5 100 100 ESE 6 9 30.09 1019 2 3 N/A
7:42 am 07:42 Cloudy with Mist and Fog 41 5 41 5 100 100 ESE 8 13 30.09 1019 1 1 N/A
7:56 am 07:56 Cloudy with Fog 41 5 41 5 100 100 ESE 9 15 30.08 1019 0 0 N/A
8:21 am 08:21 Cloudy with Fog 41 5 41 5 100 100 SE 9 15 30.09 1019 1 1 N/A
8:30 am 08:30 Cloudy with Mist and Fog 41 5 41 5 100 100 ESE 9 15 30.09 1019 1 1 N/A
8:37 am 08:37 Cloudy with Mist and Fog 41 5 41 5 100 100 SE 8 13 30.09 1019 1 2 N/A
8:56 am 08:56 Cloudy with Mist and Fog 42 5.6 42 5.6 100 100 ESE 6 9 30.09 1019 1 2 N/A
9:04 am 09:04 Cloudy with Mist and Fog 43 6 43 6 100 100 ESE 7 11 30.09 1019 1 2 N/A
9:26 am 09:26 Cloudy with Mist and Fog 43 6 43 6 100 100 SE 9 15 30.09 1019 2 3 N/A
9:35 am 09:35 Cloudy with Mist and Fog 43 6 43 6 100 100 SE 8 13 30.08 1019 2 3 N/A
9:56 am 09:56 Cloudy with Mist and Fog 42 5.6 42 5.6 100 100 SE 10 17 30.08 1019 3 4 N/A
10:49 am 10:49 Cloudy with Mist and Fog 45 7 45 7 100 100 ESE 15 24 30.04 1017 3 5 N/A
10:56 am 10:56 Cloudy with Mist and Fog 45 7.2 45 7.2 100 100 ESE 13 20 30.05 1018 3 5 N/A
11:20 am 11:20 Cloudy with Mist and Fog 46 8 46 8 100 100 SE 10 17 30.02 1017 5 8 N/A
11:34 am 11:34 Cloudy with Mist and Fog 48 9 48 9 100 100 SE 12 19 30.02 1016 6 10 N/A
11:56 am 11:56 Cloudy 52 11.1 49 9.4 89 89 SE 12 19 30.02 1017 7 11 N/A
12:06 pm 12:06 Mostly Cloudy 52 11 48 9 88 88 SSE 12 19 30.01 1016 8 13 N/A
12:29 pm 12:29 Partly Cloudy 54 12 48 9 82 82 SE 12 19 29.98 1015 8 13 N/A
12:56 pm 12:56 Sunny 56 13.3 49 9.4 77 77 SSE 12 19 29.99 1016 10 16 N/A
1:56 pm 13:56 Sunny 57 13.9 48 8.9 72 72 S 13 20 29.98 1015 10 16 N/A
2:56 pm 14:56 Sunny 59 15 48 8.9 67 67 SE 9 15 29.96 1015 10 16 N/A
3:56 pm 15:56 Sunny 60 15.6 48 8.9 65 65 SSE 8 13 29.93 1014 10 16 N/A
4:56 pm 16:56 Sunny 60 15.6 47 8.3 62 62 SE 8 13 29.91 1013 10 16 N/A
5:56 pm 17:56 Sunny 60 15.6 48 8.9 65 65 ESE 9 15 29.88 1012 10 16 N/A
6:56 pm 18:56 Partly Cloudy 59 15 48 8.9 67 67 SSE 3 6 29.91 1013 10 16 N/A
7:56 pm 19:56 Cloudy with Light Rain 55 12.8 51 10.6 87 87 ESE 8 13 29.88 1012 10 16 N/A
8:56 pm 20:56 Cloudy with Light Rain 54 12.2 51 10.6 90 90 ESE 9 15 29.85 1011 10 16 N/A
9:56 pm 21:56 Cloudy with Light Rain 52 11.1 52 11.1 100 100 ESE 5 7 29.84 1011 10 16 N/A
10:56 pm 22:56 Cloudy 52 11.1 52 11.1 100 100 E 8 13 29.80 1009 10 16 N/A
11:56 pm 23:56 Cloudy with Light Rain 52 11.1 52 11.1 100 100 SE 5 7 29.81 1010 8 13 N/A

Powered by AerisWeather